Torna al catalogo

PRAETORIAN SDA_518

AttivoPO
NORAD 100076·PAYLOAD·🇺🇸 United States

Lanciato Jul 16, 2026 da Vandenberg Space Force Base

Loading…

Prossimi Passaggi (prossime 24 ore)

TLE

AggiornatoSource: Space-Track

Epoca: Sep 14, 2026, 17:40 UTC

1 A0076U 26163T   26257.73658723  .00000147  00000-0  11615-3 0  9993
2 A0076  81.4774 255.1599 0017755  56.4232 303.8618 13.86190756  8305

Traccia PRAETORIAN SDA_518 in tempo reale con AllMySat

Download on the App Store